Tracking 19254 objects as of 19-Oct-2018
HD Live streaming from Space Station
objects crossing your sky now

SUPERBIRD C

Track SUPERBIRD C now!
SUPERBIRD C is classified as:


NORAD ID: 24880
Int'l Code: 1997-036A
Perigee: 36,108.3 km
Apogee: 36,159.4 km
Inclination: 7.5 °
Period: 1,453.5 minutes
Semi major axis: 42504 km
RCS: 12.5892 m2 (large)
Launch date: July 28, 1997
Source: Japan (JPN)
Launch site: AIR FORCE EASTERN TEST RANGE (AFETR)

14 Ku-band; Asia-Pacific region; voice and video communications.
aabbcc
Your satellite tracking list
Your tracking list is empty




NASA's NSSDC Master Catalog

Two Line Element Set (TLE):
1 24880U 97036A   18292.38275393  .00000052  00000-0  00000+0 0  9995
2 24880   7.4772  51.1782 0006013 264.1193  95.8233  0.99070574 77567
Source of the keplerian elements: AFSPC